Swanton, VT

7:45 PM EDT on September 28, 2016 (GMT -0400)
Franklin County State

Weather History for KFSO - February, 2014

Change the Weather History Date:

Tuesday, February 4, 2014

  Actual Average (KPBG) Record (KPBG)
Temperature  
Mean Temperature 20 °F 18 °F  
Max Temperature 30 °F 28 °F 55 °F (1991)
Min Temperature 10 °F 7 °F -20 °F (1963)
Degree Days  
Heating Degree Days 45 47  
Month to date heating degree days 191  
Since 1 July heating degree days 4567  
Cooling Degree Days 0 0  
Month to date cooling degree days 0  
Year to date cooling degree days 0  
Moisture  
Dew Point 9 °F    
Average Humidity 67    
Maximum Humidity 81    
Minimum Humidity 45    
Precipitation  
Precipitation 0.00 in - 0.77 in (1972)
Month to date precipitation  
Year to date precipitation  
Sea Level Pressure  
Sea Level Pressure 30.41 in    
Wind  
Wind Speed 2 mph (ESE)    
Max Wind Speed 8 mph    
Max Gust Speed -    
Visibility 10 miles    
Events Snow    
T = Trace of Precipitation, MM = Missing Value Source: NWS Daily Summary

Daily Weather History Graph

Daily Weather History Graph

Search for Another Location

Airport or City:

Trip Planner

Search our weather history database for the weather conditions in past years. The results will help you decide how hot, cold, wet, or windy it might be!

Date:

Astronomy

Feb. 04, 2014 Rise Set
Actual Time 7:08 AM EST 5:04 PM EST
Civil Twilight 6:37 AM EST 5:35 PM EST
Nautical Twilight 6:02 AM EST 6:10 PM EST
Astronomical Twilight 5:28 AM EST 6:45 PM EST
Moon 9:28 AM EST (2/4) 11:13 PM EST (2/4)
Length of Visible Light 10h 58m
Length of Day
9h 56m
Waxing Crescent, 29% of the Moon is Illuminated
Feb 4
Waxing Crescent
Feb 6
First Quarter
Feb 14
Full
Feb 22
Last Quarter
Mar 1
New

Hourly Weather History & Observations

Time (EST) Temp. Windchill Dew Point Humidity Pressure Visibility Wind Dir Wind Speed Gust Speed Precip Events Conditions
12:15 AM 10.8 °F - 5.9 °F 81% 30.34 in 10.0 mi Calm Calm - N/A   Clear
12:35 AM 10.8 °F - 5.9 °F 81% 30.34 in 10.0 mi Calm Calm - N/A   Clear
12:55 AM 10.8 °F - 5.9 °F 81% 30.35 in 10.0 mi Calm Calm - N/A   Scattered Clouds
1:15 AM 10.8 °F - 5.9 °F 81% 30.35 in 10.0 mi Calm Calm - N/A   Mostly Cloudy
1:35 AM 10.8 °F - 5.9 °F 81% 30.36 in 10.0 mi Calm Calm - N/A   Mostly Cloudy
1:55 AM 10.8 °F 1.2 °F 5.9 °F 81% 30.36 in 10.0 mi SE 5.8 mph - N/A   Overcast
2:15 AM 10.8 °F 4.5 °F 5.9 °F 81% 30.35 in 10.0 mi SE 3.5 mph - N/A   Overcast
2:35 AM 10.8 °F 4.5 °F 5.5 °F 79% 30.35 in 10.0 mi SE 3.5 mph - N/A   Overcast
2:55 AM 10.8 °F 4.5 °F 5.0 °F 78% 30.35 in 10.0 mi SE 3.5 mph - N/A   Overcast
3:15 AM 10.8 °F 4.5 °F 5.0 °F 78% 30.35 in 10.0 mi SE 3.5 mph - N/A   Overcast
3:35 AM 10.8 °F - 5.0 °F 78% 30.38 in 10.0 mi Calm Calm - N/A   Overcast
3:55 AM 10.8 °F 4.5 °F 5.0 °F 78% 30.38 in 10.0 mi SE 3.5 mph - N/A   Overcast
4:15 AM 10.8 °F 4.5 °F 5.0 °F 78% 30.38 in 10.0 mi ESE 3.5 mph - N/A   Overcast
4:35 AM 10.9 °F 4.7 °F 5.0 °F 77% 30.39 in 7.0 mi SE 3.5 mph - N/A Snow Light Snow
4:55 AM 11.8 °F - 5.9 °F 77% 30.39 in 10.0 mi Calm Calm - N/A Snow Light Snow
5:15 AM 11.1 °F 3.1 °F 5.4 °F 78% 30.40 in 10.0 mi SE 4.6 mph - N/A   Overcast
5:35 AM 12.7 °F 6.7 °F 7.0 °F 78% 30.41 in 10.0 mi SE 3.5 mph - N/A   Overcast
5:55 AM 12.9 °F - 7.0 °F 77% 30.42 in 10.0 mi Calm Calm - N/A   Overcast
6:15 AM 13.1 °F 5.4 °F 7.7 °F 79% 30.41 in 10.0 mi SE 4.6 mph - N/A   Overcast
6:35 AM 13.1 °F - 7.7 °F 79% 30.41 in 10.0 mi Calm Calm - N/A   Overcast
6:55 AM 13.1 °F 7.1 °F 7.7 °F 79% 30.41 in 10.0 mi SE 3.5 mph - N/A   Mostly Cloudy
7:15 AM 12.0 °F - 6.6 °F 79% 30.41 in 10.0 mi Calm Calm - N/A   Scattered Clouds
7:35 AM 11.8 °F - 6.6 °F 80% 30.42 in 10.0 mi Calm Calm - N/A   Clear
7:55 AM 12.2 °F - 7.0 °F 80% 30.43 in 10.0 mi Calm Calm - N/A   Clear
8:15 AM 12.0 °F 5.9 °F 7.2 °F 81% 30.43 in 10.0 mi SE 3.5 mph - N/A   Scattered Clouds
8:35 AM 13.1 °F 7.1 °F 8.2 °F 81% 30.43 in 10.0 mi SSE 3.5 mph - N/A   Mostly Cloudy
8:55 AM 16.5 °F 11.0 °F 11.1 °F 79% 30.45 in 10.0 mi SSW 3.5 mph - N/A   Scattered Clouds
9:15 AM 20.8 °F - 12.7 °F 71% 30.46 in 10.0 mi Calm Calm - N/A   Scattered Clouds
9:35 AM 22.1 °F - 12.4 °F 66% 30.46 in 10.0 mi Calm Calm - N/A   Mostly Cloudy
9:55 AM 23.4 °F 18.9 °F 12.2 °F 62% 30.46 in 10.0 mi West 3.5 mph - N/A   Mostly Cloudy
10:15 AM 24.1 °F 18.2 °F 12.0 °F 60% 30.47 in 10.0 mi West 4.6 mph - N/A   Mostly Cloudy
10:35 AM 24.4 °F 17.5 °F 11.8 °F 59% 30.46 in 10.0 mi West 5.8 mph - N/A   Overcast
10:55 AM 25.2 °F 17.3 °F 11.7 °F 57% 30.46 in 10.0 mi WSW 6.9 mph - N/A   Overcast
11:15 AM 27.3 °F 20.9 °F 12.7 °F 54% 30.46 in 10.0 mi West 5.8 mph - N/A   Mostly Cloudy
11:35 AM 25.7 °F - 11.8 °F 56% 30.45 in 10.0 mi Calm Calm - N/A   Overcast
11:55 AM 25.7 °F 20.1 °F 11.5 °F 55% 30.45 in 10.0 mi SW 4.6 mph - N/A   Overcast
12:15 PM 30.9 °F 25.2 °F 13.1 °F 48% 30.44 in 10.0 mi SW 5.8 mph - N/A   Overcast
12:35 PM 30.9 °F 24.3 °F 12.0 °F 46% 30.44 in 10.0 mi NW 6.9 mph - N/A   Overcast
12:55 PM 30.9 °F 25.2 °F 12.6 °F 47% 30.44 in 10.0 mi WNW 5.8 mph - N/A   Mostly Cloudy
1:15 PM 30.9 °F 25.2 °F 12.2 °F 46% 30.43 in 10.0 mi NW 5.8 mph - N/A   Scattered Clouds
1:35 PM 30.9 °F 26.2 °F 11.7 °F 45% 30.43 in 10.0 mi NW 4.6 mph - N/A   Scattered Clouds
1:55 PM 28.4 °F 21.2 °F 10.9 °F 48% 30.43 in 10.0 mi NNW 6.9 mph - N/A   Clear
2:15 PM 26.4 °F 18.0 °F 11.5 °F 53% 30.43 in 10.0 mi NNE 8.1 mph - N/A   Clear
2:35 PM 25.7 °F 19.0 °F 11.7 °F 55% 30.43 in 10.0 mi North 5.8 mph - N/A   Clear
2:55 PM 25.7 °F 19.0 °F 10.6 °F 53% 30.41 in 10.0 mi North 5.8 mph - N/A   Clear
3:15 PM 25.3 °F 21.1 °F 10.2 °F 53% 30.40 in 10.0 mi North 3.5 mph - N/A   Clear
3:35 PM 25.3 °F 21.1 °F 10.0 °F 52% 30.38 in 10.0 mi North 3.5 mph - N/A   Clear
3:55 PM 25.7 °F - 10.0 °F 52% 30.41 in 10.0 mi Calm Calm - N/A   Clear
4:15 PM 25.3 °F - 10.0 °F 52% 30.41 in 10.0 mi Calm Calm - N/A   Clear
4:35 PM 23.9 °F - 9.5 °F 54% 30.41 in 10.0 mi Calm Calm - N/A   Clear
4:55 PM 22.8 °F 16.7 °F 10.4 °F 59% 30.41 in 10.0 mi North 4.6 mph - N/A   Clear
5:15 PM 22.1 °F - 10.4 °F 61% 30.41 in 10.0 mi Calm Calm - N/A   Clear
5:35 PM 21.9 °F - 10.4 °F 61% 30.41 in 10.0 mi Calm Calm - N/A   Clear
5:55 PM 21.0 °F - 10.4 °F 64% 30.41 in 10.0 mi Calm Calm - N/A   Clear
6:15 PM 20.8 °F 16.0 °F 10.9 °F 66% 30.41 in 10.0 mi NNW 3.5 mph - N/A   Clear
6:35 PM 19.9 °F 14.9 °F 10.0 °F 65% 30.41 in 10.0 mi North 3.5 mph - N/A   Clear
7:15 PM 18.9 °F - 8.6 °F 64% 30.42 in 10.0 mi Calm Calm - N/A   Clear
7:35 PM 18.3 °F - 8.8 °F 66% 30.42 in 10.0 mi Calm Calm - N/A   Clear
7:55 PM 18.3 °F - 8.8 °F 66% 30.42 in 10.0 mi Calm Calm - N/A   Clear
8:15 PM 18.3 °F 13.1 °F 9.9 °F 70% 30.41 in 10.0 mi ENE 3.5 mph - N/A   Clear
8:35 PM 18.3 °F 13.1 °F 9.9 °F 70% 30.41 in 10.0 mi East 3.5 mph - N/A   Clear
8:55 PM 18.3 °F 11.5 °F 9.5 °F 68% 30.41 in 10.0 mi East 4.6 mph - N/A   Clear
9:15 PM 18.3 °F 13.1 °F 9.5 °F 68% 30.41 in 10.0 mi ESE 3.5 mph - N/A   Clear
9:35 PM 18.5 °F 13.3 °F 9.5 °F 68% 30.41 in 10.0 mi ENE 3.5 mph - N/A   Clear
9:55 PM 18.9 °F - 9.9 °F 68% 30.42 in 10.0 mi Calm Calm - N/A   Mostly Cloudy
10:15 PM 19.0 °F - 10.2 °F 69% 30.42 in 10.0 mi Calm Calm - N/A   Overcast
10:35 PM 19.4 °F - 10.4 °F 68% 30.41 in 10.0 mi Calm Calm - N/A   Overcast
10:55 PM 19.6 °F - 10.9 °F 69% 30.39 in 10.0 mi Calm Calm - N/A   Overcast
11:15 PM 19.9 °F - 11.5 °F 70% 30.38 in 10.0 mi Calm Calm - N/A   Overcast
11:35 PM 19.6 °F - 11.5 °F 71% 30.36 in 10.0 mi Calm Calm - N/A   Overcast
11:55 PM 19.9 °F 14.9 °F 11.8 °F 71% 30.35 in 10.0 mi ESE 3.5 mph - N/A   Overcast